CAPE
69 0 22 0 110 185 113 52 55 59 55 35 60 162 105 69 204 495 1109 903 1056 1531 674 900 2234 1984 2210 2685 2934 3520 3449 3200 2796 2870 2913 2715 2791 2527 2341 2580 2344 2454 2407 1857 1792 2102 1766 1601 2000
11 0 0 0 123 152 40 5 3 6 1 16 26 0 119 594 308 589 1097 914 1548 1539 593 759 2167 2308 2231 2569 2882 3378 3400 3166 3005 3104 2961 2916 3004 2808 2311 2490 2368 2477 2661 2243 1639 1785 1506 1274 1278
33 0 0 5 126 44 14 0 3 0 0 0 20 2 71 746 859 832 953 708 1669 1601 914 1691 2246 2364 2121 2338 2715 3072 3465 3387 3309 3279 3111 3138 3154 3049 2847 2871 2643 2428 2718 2608 2185 1679 1629 1585 1525
0 0 0 17 40 0 0 0 1 119 61 62 125 132 1187 1110 1079 928 1069 1015 1001 1436 1807 2043 2400 2147 1975 2172 2389 2741 3071 3368 3427 3268 3250 3170 3054 3200 3127 2899 2703 2462 2646 2620 2376 2088 1888 1674 1532
0 0 10 82 8 0 0 0 37 151 246 20 132 187 1589 1600 1543 1568 1390 968 670 969 2410 1433 2342 2047 1986 1964 2092 2266 2622 2978 3280 3094 2809 2760 2746 2757 2294 2348 2254 2333 2529 2455 2266 2144 2122 2044 1749
0 0 63 50 3 0 0 0 61 171 171 192 59 289 1648 1923 1920 1882 1493 1206 606 995 1848 1255 2191 2102 2012 2011 2006 2096 2285 2388 2555 2765 2772 2634 2603 2402 2404 2352 2248 2204 2277 2355 2378 2705 2711 2585 2423
0 29 6 2 7 0 0 0 51 72 113 113 165 923 1836 1811 1831 1970 1937 1860 1534 1173 1733 1640 1030 1530 2037 2086 2182 2332 2421 2375 2405 2403 2316 2235 2115 2097 2105 2231 2255 2298 2341 2425 2482 2851 2847 2696 2572
0 0 0 0 5 0 0 8 3 0 267 573 997 1528 1833 2061 1992 2122 2051 1785 1496 1486 1501 1737 1795 1473 955 731 2227 2279 2315 2308 2351 2360 2372 2362 2301 2239 2132 2410 2239 2256 2236 2314 2611 2714 2825 2799 2664
0 0 4 0 0 0 1 66 54 2 591 1088 1447 1922 2053 2070 1967 1944 1889 1731 1747 1568 1565 1542 1331 1641 1311 1193 1774 2160 2281 2279 2269 2165 2389 2125 711 995 1202 1461 1785 2481 2655 2636 2718 2750 2703 2594 2488
0 0 0 0 0 0 7 85 104 334 1103 642 1539 1920 2016 2053 2086 1942 1722 1396 1250 1543 1620 1649 1476 1523 1279 811 2731 2538 1759 1402 1261 1176 1718 2028 1145 1280 998 1729 2465 2663 2809 2726 2664 2732 2721 2448 511
0 0 0 0 0 0 7 432 685 1240 1526 1484 1683 2098 2318 2041 1775 1581 1938 1974 856 1262 1792 1828 2093 1928 1529 2080 1688 1236 1547 1846 2239 1978 1941 1917 1554 1114 1046 884 1320 1670 2206 1518 1736 1473 1256 391 243
0 0 0 0 0 19 67 934 1631 1665 1795 1988 2201 2476 2591 2674 2472 2018 1593 1338 1218 1060 1530 2153 2393 2532 2559 2179 1948 1496 1157 2197 2414 2625 2712 4062 2449 2425 1719 1379 1255 1592 1228 1804 1635 951 1581 1497 1254
0 0 0 0 13 302 951 1569 1925 2072 2154 2252 2408 2399 2215 1724 1408 779 711 700 664 970 1514 1483 1780 1627 1474 1727 1176 1175 1159 490 519 528 1519 2074 2298 2335 1833 1770 1084 543 346 413 371 454 714 491 410
0 0 0 5 95 529 1137 1287 1914 2439 2367 2225 1491 1172 952 701 624 459 565 419 472 658 472 797 1122 1365 1302 2146 1980 1081 930 1523 1135 545 210 1878 1670 1532 1237 1271 888 635 456 379 263 360 648 539 446
0 0 0 6 201 671 1715 1855 2217 2300 2083 1925 1190 695 452 247 199 302 292 246 214 328 369 248 826 1630 1696 1671 1703 1892 1541 1338 1663 824 1219 1102 905 1589 1694 1003 983 1415 1366 1288 1125 1103 1124 875 918
0 1 25 81 79 232 608 1760 1875 1982 1930 1128 622 334 252 213 91 165 126 120 141 172 372 458 231 303 691 760 623 588 896 1136 1245 1238 1032 963 831 1193 1545 1684 1437 771 950 940 941 1110 1095 668 1236
0 13 61 78 34 188 179 1347 1576 1604 1802 806 260 48 65 183 118 78 102 135 134 139 173 178 243 181 134 135 57 88 649 561 593 656 1115 1158 1084 1082 1479 1984 1367 1877 846 752 552 494 737 622 497
1 0 22 54 122 67 297 1279 1390 1647 1452 649 197 43 25 75 41 63 86 77 90 40 43 33 7 15 98 8 28 0 0 6 29 106 153 584 332 165 1006 1048 1371 769 895 1374 1140 574 452 374 403
0 6 61 291 261 316 771 1328 1354 1365 1056 431 111 53 21 9 28 43 31 10 1 1 0 0 0 0 1 0 0 0 0 0 0 4 31 30 22 18 477 251 1078 1064 537 602 986 1161 717 548 601
0 25 110 183 174 305 909 1235 1375 1002 563 267 158 101 90 117 116 87 45 16 1 1 4 0 0 0 0 0 0 4 2 0 1 9 101 248 71 193 259 611 402 853 1063 650 354 309 878 970 1376
6 43 31 112 124 122 446 905 1006 1301 662 545 454 235 198 219 209 222 132 75 42 21 22 15 9 11 15 8 33 29 29 9 1 7 21 94 60 123 393 461 449 885 829 968 472 579 206 193 542
9 0 0 0 0 56 375 415 552 1374 1055 1006 777 619 326 266 268 163 43 23 7 10 66 22 33 30 42 77 149 310 94 81 56 42 58 146 204 125 134 249 421 502 884 640 768 754 463 270 146
0 0 0 0 5 31 84 246 1198 799 736 980 813 680 544 385 170 72 24 11 7 1 9 93 68 64 77 87 136 99 160 94 66 48 170 256 209 272 163 101 155 354 157 443 525 570 520 614 506
0 0 0 0 0 76 226 139 593 542 792 1038 742 638 424 277 150 52 21 0 0 0 1 35 19 49 130 89 127 218 155 145 85 99 67 27 34 25 23 8 17 85 251 382 502 543 560 541 457
0 0 53 66 48 201 299 1 792 508 583 859 691 375 462 212 101 23 0 4 0 3 2 1 50 53 254 142 178 178 179 213 110 62 31 31 28 33 20 17 13 69 237 404 354 489 452 445 217
0 0 6 6 54 78 88 401 611 390 549 644 760 422 278 43 1 0 0 0 1 6 7 7 48 111 158 146 173 180 127 37 48 42 21 8 12 16 19 11 13 67 83 262 260 455 199 86 9
9 38 0 2 30 80 249 394 408 263 296 540 613 419 65 7 3 0 2 0 5 8 6 38 71 95 51 94 121 128 60 72 74 65 29 22 4 5 9 7 9 12 18 29 47 10 11 3 3
0 0 6 81 15 14 53 531 527 298 316 278 240 111 10 0 1 2 0 6 9 14 55 74 56 50 74 68 65 23 45 32 20 28 33 18 8 1 5 5 5 21 17 13 14 9 9 4 5
5 43 9 0 4 25 31 302 161 223 216 193 96 10 6 3 1 1 10 28 51 55 76 115 50 107 87 47 34 27 47 40 5 29 18 40 24 0 3 5 3 22 21 11 13 18 13 8 7
0 0 0 0 45 2 9 169 58 50 27 2 3 9 8 7 6 15 33 29 27 56 34 108 193 109 54 3 64 71 44 2 1 28 48 31 33 39 29 12 5 9 15 7 6 4 1 4 10
CIN
-506 0 -207 0 -9 -63 -9 0 -3 -1 -1 -1 -2 0 -1 -6 0 -1 -8 -27 -2 -5 -128 -148 -52 -63 -47 -21 -13 -4 -9 -9 -18 -10 -4 -3 0 -8 -16 -8 -15 -6 -8 -29 -34 -26 -41 -53 -39
-276 0 0 0 -10 -12 -1 0 0 -7 0 0 -2 0 -2 0 -4 -8 -11 -21 0 -11 -90 -100 -54 -32 -43 -31 -16 -4 -6 -6 -8 -7 -8 -5 0 -4 -26 -17 -18 -5 0 -13 -41 -39 -50 -60 -64
-410 0 0 0 0 -2 -1 0 0 0 0 0 -17 -1 -3 -2 -17 -30 -48 -21 0 0 -33 -74 -45 -26 -45 -36 -27 -12 -3 0 0 -1 -3 0 0 0 -1 -3 -7 -9 0 -2 -18 -40 -46 -47 -49
0 0 0 -8 -1 0 0 0 -20 -5 -24 -4 -90 -20 -23 -23 -28 -37 -51 -15 0 0 0 -91 -38 -37 -42 -33 -30 -14 -4 0 0 -1 -2 -2 -1 0 0 -1 -3 -4 0 0 -8 -25 -40 -48 -50
0 0 -1 0 0 0 0 0 -15 -12 -2 -99 -87 -5 -20 -35 -37 -33 -34 -12 -11 0 -1 -84 -58 -59 -44 -30 -25 -21 -5 -2 0 -2 -12 -10 -6 -1 -17 -8 -9 -7 -1 -2 -11 -18 -28 -32 -41
0 0 -1 0 0 0 0 0 -11 -1 -4 -1 -15 -4 -13 -12 -22 -17 -5 -4 -40 -7 -2 -106 -91 -77 -59 -50 -46 -38 -21 -12 -5 -1 -2 -11 -8 -12 -10 -14 -17 -9 -1 0 -2 0 -1 -4 -7
0 0 0 0 0 0 0 0 -7 -5 -8 -1 -1 -17 -2 -15 -9 0 -5 -10 -16 -23 0 -47 -89 -85 -73 -68 -62 -44 -31 -26 -17 -12 -6 -8 -28 -27 -22 -20 -15 -10 -5 -1 -1 0 0 -2 -5
0 0 0 0 0 0 0 -1 0 0 -1 -1 -8 -31 -6 -29 -2 0 0 0 -1 0 0 0 -3 -25 -57 -89 -51 -48 -42 -33 -23 -17 -21 -29 -29 -34 -41 -17 -22 -21 -18 -10 0 0 0 0 0
0 0 0 0 0 0 -2 -1 -2 -1 -1 -10 -45 -45 -35 -24 0 0 -1 0 0 -1 -1 0 0 0 0 -1 -53 -58 -25 -12 -13 -17 -15 -25 -56 -23 -28 -41 -33 -30 -13 -6 -1 0 0 0 0
0 0 0 0 0 0 0 -4 -1 -1 -3 -5 -23 -63 -39 -3 -1 -1 -1 0 -2 0 -1 0 0 -1 -1 -1 -29 -2 -3 -14 -19 -6 -2 -4 -2 0 -7 -16 -17 -15 -12 -10 -5 0 0 -2 -64
0 0 0 0 0 0 0 -2 -17 -1 -19 -29 -10 -1 0 -1 -3 -1 0 -11 -170 -245 -11 0 -10 -26 -2 -30 -5 0 -1 0 -5 -2 0 0 0 -1 0 -1 -2 -21 -32 -26 -18 -37 -40 -62 -63
0 0 0 0 -1 -1 -2 0 -11 -23 -24 -21 -2 0 0 0 0 0 0 -19 -175 -319 -8 -16 0 -17 -15 -21 -25 0 0 -10 -9 -10 -2 -4 0 0 -7 -4 -19 -12 -7 -12 0 0 -1 -2 -2
0 0 0 0 -7 -10 -9 -2 -1 -1 0 -1 0 0 -4 -18 -43 -149 -95 -49 -49 -16 -15 -59 -29 -58 -130 -226 -143 -36 -40 -180 -253 -182 -58 -1 -3 0 0 -5 -26 -35 -34 -21 -4 -2 0 -4 -8
0 0 0 -5 -6 -5 0 -2 -1 0 -2 -6 -78 -108 -144 -194 -180 -222 -163 -96 -120 -84 -115 -101 -31 -48 -66 -76 -33 -29 -14 -2 -43 -166 -337 -2 0 -1 -2 0 0 -1 -6 -5 -1 -3 0 -2 0
0 0 0 -7 -3 0 -3 -1 0 0 -8 -3 -90 -166 -202 -211 -182 -152 -129 -123 -146 -97 -125 -134 -22 -26 -30 -13 -8 -9 -9 0 -4 -8 -12 -4 0 0 0 0 0 0 0 -4 -10 -17 -19 -21 -1
0 0 0 -1 -3 -2 -1 0 0 0 0 -46 -151 -233 -236 -217 -169 -147 -154 -149 -138 -109 -95 -48 -46 -11 -4 0 0 0 0 0 0 0 -5 -1 -6 -4 0 0 -5 -36 -39 -21 -8 -4 -2 -11 -18
0 0 -1 -2 -4 0 0 -1 0 0 0 -73 -186 -267 -260 -188 -166 -137 -138 -154 -158 -146 -109 -86 -63 -53 -34 -14 -27 -3 -3 0 -1 0 -2 -2 0 0 -2 0 -1 0 -11 -4 -3 0 0 -2 -7
0 0 0 -1 -1 -7 -48 0 -4 0 0 -72 -158 -205 -228 -182 -203 -188 -168 -174 -171 -195 -169 -158 -38 -31 -52 -16 -1 0 0 0 -18 -77 -16 0 -3 -13 0 0 0 -3 -2 0 0 0 0 0 0
0 0 -1 -1 0 0 -1 0 0 0 -13 -97 -150 -189 -219 -211 -181 -185 -170 -179 -136 -115 -1 0 0 -1 -24 0 0 0 0 0 0 0 0 -1 0 0 0 0 0 0 0 0 0 0 0 0 0
0 0 -1 0 -6 -1 0 0 0 0 -21 -87 -112 -139 -142 -138 -134 -140 -143 -138 0 0 0 0 0 0 0 0 0 0 0 0 0 0 -1 0 -1 0 0 0 -1 -1 0 -1 -1 -2 0 0 0
0 -1 -3 0 -12 -9 0 -7 -7 0 -6 -42 -51 -75 -75 -71 -74 -62 -59 -59 -51 0 -1 0 0 -1 0 0 0 0 0 -1 0 0 0 -2 -2 0 0 0 0 0 0 0 0 0 -3 -3 -1
0 0 0 0 0 -1 -12 -2 -124 0 0 0 -3 -15 -24 -45 -22 -17 -23 -2 0 0 -2 -3 0 -1 0 -2 0 0 0 0 0 0 0 0 0 0 0 0 0 0 0 -1 -1 0 0 0 -2
0 0 0 0 0 0 0 0 -8 -26 -5 -1 -2 -1 0 -3 -4 -13 -12 -1 -1 -6 -2 -9 -1 -1 0 -1 0 0 0 0 0 0 0 0 -1 0 -6 -39 -5 -5 0 -1 0 0 0 -1 0
0 0 0 0 0 0 -107 0 -62 -71 -28 0 -4 -3 -3 -7 -6 -5 -1 -1 0 -1 -1 0 -2 -1 -2 0 0 0 0 0 0 0 0 0 0 -1 -7 -31 -11 -2 -23 -2 0 0 0 0 0
0 0 0 -2 -2 -1 -16 -3 -1 0 0 -1 -10 -88 -8 -2 -9 -5 -1 0 -1 -6 -2 -1 -1 -9 0 0 -2 -3 0 0 0 0 0 0 0 0 0 0 0 0 0 0 0 0 0 0 -8
0 0 0 -5 0 0 -16 0 -26 -51 -22 -1 -2 -4 -1 -22 -2 0 0 0 -1 0 0 0 0 -1 -1 -5 -5 -1 0 0 0 0 0 0 0 0 0 0 0 0 0 0 0 0 -6 -3 -1
-1 0 0 -1 -1 -2 -14 -9 -25 -7 0 0 0 -5 -8 -3 0 0 0 0 -1 0 -1 0 -1 -1 -13 -2 -1 0 -3 0 0 0 0 0 0 0 0 0 0 0 0 -2 -1 0 0 0 0
0 0 0 -1 0 -1 -2 -10 0 0 -1 -1 0 -1 0 0 0 0 0 0 0 -1 0 -6 -2 -16 -1 0 0 0 0 0 0 0 0 0 0 0 0 0 0 0 0 0 0 0 0 0 0
0 -1 0 0 0 -3 0 -4 -54 -42 -44 -13 -4 -1 0 0 0 0 0 0 0 -9 -4 -3 -17 0 -1 -1 -1 -1 0 0 0 -1 0 0 0 0 0 0 0 0 0 0 0 0 0 0 0
0 0 0 0 0 -1 0 -2 -69 -82 -35 -3 0 0 0 0 0 0 -1 -9 -11 -1 -20 -4 -6 0 0 -1 -1 0 0 0 0 -2 -1 0 0 0 0 0 0 0 0 0 0 0 0 0 0
Wind_Speed
10 14 13 10 6 5 20 12 4 5 8 9 12 9 13 20 16 9 12 5 7 19 17 15 10 10 9 8 7 9 11 12 13 12 11 12 12 13 12 11 10 10 9 8 7 7 6 6 5
13 11 10 9 8 7 7 11 9 8 9 5 11 14 17 19 14 16 14 7 9 14 14 15 11 9 9 8 7 8 10 11 12 12 13 13 12 12 12 11 10 10 8 7 6 7 6 5 5
16 11 12 12 14 7 13 9 9 10 4 7 9 14 14 10 16 14 10 8 15 13 13 16 11 10 10 9 8 8 10 11 11 11 12 12 12 11 11 10 9 9 8 7 6 6 6 5 5
9 10 9 11 9 8 9 7 2 16 18 6 28 9 17 14 14 15 10 10 10 14 17 15 11 9 8 8 8 8 9 11 12 12 12 12 12 11 10 10 9 8 7 7 7 7 7 7 7
10 10 15 3 10 7 9 5 2 23 15 13 25 9 19 16 15 13 9 8 9 12 18 15 11 10 8 7 6 6 6 8 9 10 11 11 9 8 8 6 7 8 8 9 9 8 8 8 8
10 9 13 7 10 11 6 2 5 9 15 17 2 16 17 16 14 11 10 9 11 11 14 15 13 11 9 8 8 7 5 5 5 6 7 6 7 8 7 8 8 7 8 8 9 8 8 8 8
16 11 7 4 9 11 9 6 9 14 10 9 15 30 15 15 11 12 12 10 10 10 15 12 12 10 9 9 9 9 8 7 7 7 6 7 6 7 7 8 9 10 10 10 11 10 10 10 10
10 10 10 4 7 14 7 6 8 9 19 15 19 19 14 11 11 13 12 12 10 8 12 16 12 12 10 11 9 8 9 9 8 8 9 10 10 10 11 9 12 13 12 12 11 10 10 10 11
9 12 6 10 9 11 10 14 10 4 17 19 15 15 12 10 10 12 12 12 10 4 8 11 9 17 12 15 13 10 8 6 6 8 10 9 10 14 14 16 14 18 15 14 14 13 13 13 14
10 10 14 7 8 9 10 14 12 8 18 11 19 13 9 8 13 16 15 14 13 10 4 2 4 5 4 2 15 12 12 10 10 10 11 10 12 11 8 3 9 11 15 15 16 16 16 15 13
7 9 5 5 7 6 7 16 15 18 18 16 13 12 18 15 8 10 15 23 18 17 15 3 8 4 4 7 3 4 6 9 7 3 7 8 11 10 9 8 10 12 18 12 16 15 14 18 15
10 5 5 8 3 6 7 16 18 19 18 15 15 14 14 16 18 18 15 17 9 4 10 10 12 10 8 9 11 5 5 7 4 5 6 4 9 8 8 6 6 5 5 11 11 10 15 17 18
11 6 1 5 6 8 14 16 18 18 17 18 16 18 19 18 20 22 18 19 17 15 16 18 16 11 6 5 5 10 13 7 9 8 14 9 9 8 9 9 10 10 11 11 12 12 10 12 14
5 1 5 8 7 9 13 13 14 21 19 20 17 18 21 21 20 16 18 17 16 16 16 14 11 5 5 6 7 4 1 4 3 5 9 12 8 8 9 9 12 12 12 12 12 12 11 12 15
6 10 10 7 11 11 27 10 16 23 15 21 18 18 18 17 19 19 17 16 17 14 15 16 16 13 10 7 7 5 5 3 6 6 9 10 10 10 12 12 12 12 11 9 7 7 8 7 11
11 13 13 15 7 7 11 14 16 19 18 18 18 17 16 17 17 17 16 16 15 15 16 15 14 14 12 9 7 6 5 2 3 4 5 10 12 11 10 10 11 9 5 7 8 10 10 9 7
11 12 11 11 12 5 7 16 15 13 17 16 16 16 14 15 14 15 14 14 13 14 14 15 14 14 12 7 6 5 2 5 7 5 4 7 10 12 8 9 10 9 4 5 7 10 11 11 11
13 14 12 9 13 12 8 14 9 11 15 15 14 15 13 13 11 12 12 12 12 12 13 13 13 14 12 10 10 10 10 10 9 8 7 10 9 13 12 11 11 9 9 10 9 11 11 12 12
7 4 5 9 3 8 11 11 11 11 14 14 14 13 12 11 11 9 9 9 9 11 12 12 12 12 11 9 10 11 11 11 10 8 9 12 11 12 12 10 9 8 6 9 13 9 9 11 11
7 2 10 7 5 11 11 13 11 12 12 14 13 12 12 10 8 7 7 6 7 9 9 10 11 9 10 10 8 9 10 11 11 10 11 9 11 13 12 11 10 8 9 8 7 9 10 9 9
3 4 7 9 7 13 12 12 3 15 12 12 10 9 9 8 7 6 4 5 7 5 7 8 8 10 8 10 9 9 9 11 11 12 12 14 16 14 12 14 12 8 6 8 9 7 9 6 7
9 3 1 4 12 3 17 4 27 18 18 13 13 8 7 6 4 3 4 4 3 4 7 4 7 9 10 11 10 12 11 13 10 12 13 14 15 13 14 12 13 13 6 9 9 8 7 6 8
8 3 6 8 11 15 11 9 12 14 7 11 10 8 6 3 2 6 4 4 5 5 6 6 5 8 9 12 12 12 13 12 12 13 15 14 14 16 16 20 18 14 11 12 11 10 9 9 7
3 6 9 9 14 12 20 8 17 16 19 11 4 7 4 3 7 1 2 7 11 12 11 9 7 9 7 11 13 14 16 17 15 16 15 15 15 14 16 18 17 16 15 14 11 11 11 9 9
10 9 10 10 8 3 14 7 13 14 11 11 12 7 7 1 9 7 11 14 12 11 10 12 13 13 14 16 14 14 18 16 17 18 15 17 14 13 16 19 19 15 14 13 10 8 9 9 6
4 9 8 9 10 7 10 10 6 12 12 11 11 11 9 9 6 14 15 10 13 11 15 14 14 14 17 13 14 15 18 11 11 12 12 11 11 12 15 14 15 15 14 13 9 7 8 10 9
3 5 9 8 16 10 13 11 14 10 10 7 10 12 7 9 10 10 11 11 10 17 18 15 19 23 13 16 14 17 12 12 12 12 10 10 10 11 14 15 14 13 13 13 12 9 10 9 9
8 8 7 6 7 6 6 20 9 10 10 8 8 8 10 8 8 12 11 15 16 17 15 22 21 9 20 20 17 15 15 14 14 12 12 14 12 13 14 15 16 12 13 14 12 10 10 10 7
3 5 1 4 5 8 10 10 10 9 8 7 7 11 10 12 14 13 15 16 17 23 22 15 9 19 18 17 15 13 14 14 15 13 12 14 12 10 13 13 14 14 15 14 12 11 10 12 11
4 9 7 7 6 7 6 9 7 8 8 9 11 12 12 11 14 16 17 22 19 17 8 15 17 15 15 14 13 14 13 14 12 13 13 13 13 13 14 12 13 13 13 13 13 12 12 14 11
Wind_Direction
210 221 234 260 241 156 218 90 341 3 79 55 23 27 66 45 25 35 67 60 93 108 129 142 132 137 130 124 129 138 147 152 153 155 153 155 157 158 159 158 162 168 166 161 159 166 167 169 158
242 249 245 269 224 13 68 43 56 30 53 334 77 44 61 60 21 60 83 84 110 115 136 133 131 136 134 126 128 124 140 152 152 154 159 160 163 164 166 164 170 177 176 172 170 173 178 174 156
258 264 273 241 221 46 34 37 35 89 77 275 124 33 41 41 54 75 78 101 90 125 139 116 132 139 144 138 135 131 137 142 147 152 158 163 164 167 171 169 176 184 188 189 192 192 193 193 189
249 224 236 250 58 64 58 22 14 100 274 82 61 303 80 41 75 78 86 105 149 119 116 128 129 135 144 145 140 141 141 137 145 154 159 164 168 171 171 171 175 191 205 212 215 213 211 208 205
239 258 256 212 86 65 41 52 321 32 87 248 126 115 95 89 99 101 113 118 112 115 108 138 134 139 143 142 134 133 143 139 148 156 166 166 165 164 177 174 186 201 214 220 224 228 224 223 217
243 261 264 92 94 51 52 2 287 119 52 346 146 64 89 109 109 124 119 100 92 112 119 135 141 147 148 147 150 143 134 130 141 152 162 173 183 185 184 186 197 217 232 239 239 239 237 233 226
256 262 16 358 94 61 6 3 19 35 64 35 347 46 45 97 101 100 86 81 96 130 115 148 160 155 159 161 159 153 148 150 154 153 158 160 173 181 193 201 213 219 228 238 239 239 238 236 235
292 277 201 351 20 74 345 105 50 355 47 67 10 138 169 110 127 115 131 121 121 128 127 142 165 171 185 169 173 175 174 173 171 176 183 188 194 197 198 206 215 220 226 237 245 247 248 251 249
246 261 92 37 11 49 23 14 13 254 88 70 53 60 90 117 140 127 132 130 101 54 127 127 172 158 193 179 163 174 186 195 200 206 209 202 230 202 214 213 218 203 214 226 235 238 239 239 240
252 274 58 23 26 3 66 29 0 35 42 24 72 81 110 102 46 38 43 48 45 44 107 65 136 100 185 149 146 194 185 205 210 219 205 229 230 240 254 133 189 189 213 224 231 236 234 233 246
212 10 63 50 27 336 31 65 32 49 58 49 69 85 65 77 83 75 57 35 24 24 343 200 118 72 342 26 285 231 209 201 183 264 278 252 273 226 214 232 202 214 213 230 215 226 229 239 236
252 73 348 37 106 37 58 95 70 71 74 69 62 68 70 58 57 51 45 95 99 139 359 19 79 80 29 30 338 302 263 32 43 3 300 322 280 277 284 287 280 248 255 211 233 231 219 216 227
250 112 185 100 81 96 91 82 88 77 80 79 77 76 79 75 71 60 52 48 39 45 42 50 40 30 330 89 116 4 8 16 22 347 305 242 258 257 266 256 257 252 251 247 244 245 258 268 257
106 246 180 165 149 112 93 120 111 74 61 76 77 75 65 57 63 66 53 64 63 43 48 43 68 44 12 9 20 37 21 298 179 239 230 265 260 281 286 274 260 263 266 263 264 252 249 247 255
204 215 187 186 162 131 70 41 97 113 108 96 97 88 87 89 82 68 66 63 63 59 45 53 68 57 39 22 351 344 345 311 274 268 326 308 295 283 283 282 283 291 282 297 307 298 297 285 269
231 236 193 163 194 205 218 149 118 119 114 105 99 90 83 76 72 73 72 63 52 46 56 45 37 65 55 32 22 359 20 288 222 278 291 277 269 272 275 277 286 300 344 314 300 300 306 287 272
207 211 192 152 208 277 242 138 117 120 117 114 109 111 105 93 79 75 67 66 57 54 42 37 32 27 14 29 4 5 17 310 333 318 247 261 292 288 280 280 282 290 254 244 261 265 260 259 264
178 221 168 178 171 248 124 95 110 130 125 122 124 107 102 94 85 77 74 54 51 47 38 40 29 14 357 9 3 359 347 343 333 330 332 317 314 309 305 306 297 281 276 270 253 250 253 260 263
353 233 127 65 112 244 98 141 155 136 132 140 127 123 115 113 104 93 79 61 55 50 41 27 26 15 357 9 360 356 348 342 341 324 339 331 303 327 315 299 301 293 288 293 295 261 254 251 253
242 152 115 142 204 266 145 168 157 164 149 137 140 131 129 123 112 92 82 71 53 43 38 29 17 15 8 357 6 357 335 334 327 339 324 302 347 318 312 315 300 291 290 280 269 273 272 266 253
222 252 148 215 185 256 192 144 310 167 159 134 118 128 135 127 128 105 83 44 16 29 31 28 11 352 17 1 5 357 342 343 347 334 336 357 328 310 302 313 303 281 275 281 288 281 271 287 290
202 212 254 180 253 214 262 250 203 175 163 174 146 146 134 131 148 133 84 66 353 4 103 25 15 5 9 4 351 347 352 345 334 334 341 329 306 328 327 300 314 317 306 271 278 266 262 261 265
52 349 274 260 247 288 232 251 58 32 110 158 150 149 126 170 99 65 11 33 20 22 57 106 25 4 5 0 3 349 354 342 329 335 330 315 345 325 6 357 343 332 319 314 293 291 293 289 279
62 237 232 243 247 234 358 313 108 159 196 148 139 130 174 117 70 133 348 61 19 10 6 4 9 350 26 2 359 358 2 341 340 348 337 346 334 342 343 350 327 322 320 314 311 312 305 303 301
228 209 231 232 216 130 203 304 63 59 56 119 111 154 73 299 43 25 25 20 15 358 353 348 7 356 22 9 6 3 1 350 357 354 354 343 346 350 352 336 329 314 311 314 323 324 316 322 326
45 328 348 330 335 11 178 38 83 72 72 69 124 91 52 43 27 28 18 358 344 0 360 354 6 5 17 10 7 13 9 20 12 10 2 2 351 345 341 338 332 330 336 332 343 2 4 25 23
63 254 30 297 250 255 117 128 99 85 87 50 65 68 47 25 27 15 2 340 353 4 356 2 22 21 7 358 3 12 22 24 11 17 360 7 349 348 343 346 344 349 355 352 9 27 20 40 38
293 359 281 225 313 321 352 66 79 47 36 47 48 44 50 357 352 3 348 5 5 359 6 32 9 356 7 5 9 6 11 15 8 8 2 10 8 358 352 352 349 4 19 12 18 26 36 47 45
243 204 21 286 293 328 290 82 49 55 46 37 34 38 10 7 353 355 354 3 16 31 5 26 354 9 3 15 1 10 7 8 7 3 3 354 8 3 359 0 358 3 19 23 26 36 47 57 52
14 355 337 318 16 326 286 89 58 36 50 20 15 24 358 1 341 354 7 37 21 4 349 21 20 3 13 4 8 19 16 13 2 347 5 357 357 21 20 11 9 12 19 26 23 32 27 24 25